Regional Weather Roundup
Issued by NWS

Home | Current Version | Previous Version | Graphics & Text | Print | Product List | Glossary On
Versions: 1 2 3 4 5 6 7 8 9 10 11 12 13 14 15 16 17 18 19 20 21 22 23 24 25 26 27 28 29 30 31 32 33 34 35 36 37 38 39 40 41 42 43 44 45 46 47 48 49 50
000
ASUS43 KOAX 160610
RWRNE

WEATHER ROUNDUP FOR NEBRASKA
NATIONAL WEATHER SERVICE OMAHA NE
1200 AM CST SAT DEC 16 2017

NOTES: SATELLITE DATA IS BEING USED TO AUGMENT CLOUD COVER ABOVE
       12000 FEET.
       "FAIR" INDICATES FEW OR NO CLOUDS BELOW 12,000 FEET WITH NO
       SIGNIFICANT WEATHER AND/OR OBSTRUCTIONS TO VISIBILITY.


NEZ001>004-019>022-054>056-160700-
NEBRASKA PANHANDLE

CITY           SKY/WX    TMP DP  RH WIND       PRES   REMARKS
SCOTTSBLUFF    CLOUDY    43   7  22 NW9       29.76R
6HR MIN TEMP:  38; 6HR MAX TEMP:  52;

ALLIANCE       CLOUDY    34  12  40 W8        29.74R WCI  27
6HR MIN TEMP:  32; 6HR MAX TEMP:  45;

CHADRON        CLOUDY    33  18  53 W7        29.74R WCI  27
6HR MIN TEMP:  33; 6HR MAX TEMP:  48;

GORDON         FAIR      37  23  56 SW8       29.72R WCI  30
6HR MIN TEMP:  32; 6HR MAX TEMP:  46;

KIMBALL        CLOUDY    41   4  21 W10       29.79S
SIDNEY         CLOUDY    36   7  29 NW10      29.78F WCI  28
6HR MIN TEMP:  31; 6HR MAX TEMP:  46;

$$

NEZ057>060-069>072-079>082-160700-
SOUTHWEST NEBRASKA

CITY           SKY/WX    TMP DP  RH WIND       PRES   REMARKS
NORTH PLATTE   CLOUDY    25  17  72 W6        29.76R WCI  18
6HR MIN TEMP:  23; 6HR MAX TEMP:  42;

IMPERIAL       CLOUDY    27   9  46 VRB3      29.77S
6HR MIN TEMP:  27; 6HR MAX TEMP:  45;

LEXINGTON      CLOUDY    31  15  50 CALM      29.75S
MCCOOK         CLOUDY    37  13  37 W13       29.77F WCI  29
6HR MIN TEMP:  36; 6HR MAX TEMP:  50;

OGALLALA       CLOUDY    29  18  61 W7        29.76S WCI  22
$$

NEZ005>010-023>029-035>040-094-160700-
NORTH CENTRAL NEBRASKA

CITY           SKY/WX    TMP DP  RH WIND       PRES   REMARKS
VALENTINE      PTCLDY    35  25  66 W7        29.70R WCI  29
6HR MIN TEMP:  33; 6HR MAX TEMP:  43;

AINSWORTH      CLOUDY    39  26  58 NW6       29.69S WCI  35
BROKEN BOW     CLOUDY    36  21  54 CALM      29.72S
6HR MIN TEMP:  30; 6HR MAX TEMP:  43;

O`NEILL        CLEAR     37  26  64 W8        29.69S WCI  30
ORD            CLOUDY    30  22  72 CALM      29.70S
6HR MIN TEMP:  30; 6HR MAX TEMP:  42;

THEDFORD       CLOUDY    39  19  45 W9        29.72S WCI  32
$$

NEZ041-046>049-061>064-073>077-083>087-160700-
SOUTH CENTRAL NEBRASKA

CITY           SKY/WX    TMP DP  RH WIND       PRES   REMARKS
GRAND ISLAND   CLEAR     38  19  46 W13       29.73F WCI  30
6HR MIN TEMP:  38; 6HR MAX TEMP:  45;

AURORA         CLEAR     37  22  55 SW10      29.73F WCI  29
HASTINGS       CLEAR     38  16  40 SW8       29.75F WCI  32
6HR MIN TEMP:  38; 6HR MAX TEMP:  45;

HEBRON         CLEAR     40  22  46 SW10G17   29.78F WCI  34
HOLDREGE       CLOUDY    40  15  36 SW12      29.75S WCI  33
KEARNEY        CLOUDY    39  13  34 W9        29.74F WCI  33
YORK           MOCLDY    36  23  60 SW12      29.74S WCI  27
$$

NEZ011>018-030>034-042>045-160700-
NORTHEAST NEBRASKA

CITY           SKY/WX    TMP DP  RH WIND       PRES   REMARKS
NORFOLK        CLOUDY    35  23  61 W6        29.68R WCI  30
6HR MIN TEMP:  34; 6HR MAX TEMP:  42;

ALBION         CLOUDY    40  23  52 CALM      29.70S
BLAIR          CLEAR     43  24  48 SW13      29.71F
COLUMBUS       CLOUDY    35  23  61 SW7       29.72F WCI  29
FREMONT        CLEAR     38  23  54 SW5       29.72F WCI  35
TEKAMAH        CLEAR     36  22  56 S9        29.70F WCI  29
6HR MIN TEMP:  32; 6HR MAX TEMP:  41;

WAYNE          CLOUDY    33  24  69 S6        29.67F WCI  27
$$

NEZ050>053-065>068-078-088>093-160700-
SOUTHEAST NEBRASKA

CITY           SKY/WX    TMP DP  RH WIND       PRES   REMARKS
LINCOLN        CLEAR     39  21  48 SW9       29.76F WCI  33
6HR MIN TEMP:  39; 6HR MAX TEMP:  45;

OMAHA EPPLEY   CLEAR     35  23  61 S10       29.73F WCI  27
6HR MIN TEMP:  31; 6HR MAX TEMP:  47;

BEATRICE       CLEAR     40  24  51 S12G20    29.78F WCI  34
FALLS CITY     CLEAR     40  24  53 S12       29.83S WCI  33
6HR MIN TEMP:  40; 6HR MAX TEMP:  43;

NEBRASKA CITY  CLEAR     42  25  50 SW15      29.77F
PLATTSMOUTH    CLEAR     43  24  46 SW18      29.73F
$$

NEZ044-045-051>053-067-160700-
OMAHA AREA

CITY           SKY/WX    TMP DP  RH WIND       PRES   REMARKS
OMAHA EPPLEY   CLEAR     35  23  61 S10       29.73F WCI  27
6HR MIN TEMP:  31; 6HR MAX TEMP:  47;

BLAIR          CLEAR     43  24  48 SW13      29.71F
FREMONT        CLEAR     38  23  54 SW5       29.72F WCI  35
MILLARD        CLEAR     44  24  46 SW7       29.73F
OFFUTT AFB     CLEAR     24  19  79 CALM      29.73F
PLATTSMOUTH    CLEAR     43  24  46 SW18      29.73F
WAHOO          FAIR      40  22  49 SW12      29.72F WCI  33
$$




USA.gov is the U.S. government's official web portal to all federal, state and local government web resources and services.